Volver al catálogo

YAOGAN 25C DEB

ActivoLEO
NORAD 69732·DEBRIS·🇷🇺 Russia

Lanzado Dec 10, 2014 desde Jiuquan Satellite Launch Center

Loading…

Próximos Pases (próximas 24 horas)

TLE

ActualizadoSource: Space-Track

Época: Sep 14, 2026, 10:44 UTC

1 69732U 14080M   26257.44769972  .00006694  00000-0  48072-2 0  9998
2 69732  63.3715  47.4294 0302081  29.5503 332.2236 13.78018956 45303

Sigue YAOGAN 25C DEB en tiempo real con AllMySat

Download on the App Store